星链-34430 (STARLINK-34430)

导读

STARLINK-34430是美国SpaceX公司星链(Starlink)星座的卫星成员,于2025年6月18日发射升空。作为星链低轨互联网星座的组网卫星,它承担着为全球偏远地区、海洋航空等场景提供高速宽带互联网服务的任务,依托SpaceX可重复使用火箭技术,不断完善全球卫星互联网覆盖网络,推动太空通信基础设施建设。

基本信息
目录编号:
64456
目录名称:
STARLINK-34430
国际标识:
2025-130U
轨道中心:
EARTH
卫星名称:
星链-34430
卫星全名:
星链-34430 (STARLINK-34430)
卫星状态:
在轨 (已飞行450 天)
发射日期:
2025-06-18 UTC
国别 :
美国 (US)
星等 :
--
轨道信息
数据来源 国际轨道数据 AOE轨道数据
星历时间 2026-09-10T18:52:17+0800
18小时前
查看轨道信息
2026-09-07T05:00:00+0800
4天前
查看轨道信息
半长轴 6840.848km 6840.919km
偏心率 0.0001074 0.0001183
轨道倾角 53.158° 53.160°
近地点辐角 103.870° 75.357°
升交点赤经 308.737° 325.464°
平近点角 256.242° 309.716°
近地点 461.976km 461.972km
远地点 463.446km 463.592km
周期 93.848分钟 93.849分钟
每日圈数 15.343976 15.343736
详细信息
固有亮度:
5
最大亮度:
2.5
卫星平台:
Starlink V1.0
覆盖范围:
全球
运营商:
太空探索技术公司
运营商所在国:
美国
制造商(研发单位):
太空探索技术公司
制造商所在国:
美国
使用方式:
暂无
卫星简介
Starlink 计划是 SpaceX 推出的全球卫星互联网项目,通过发射低轨道卫星,为全球尤其是偏远地区提供高速、低延迟的互联网服务。自 2019 年起,Starlink 已部署数千颗卫星,旨在缩小全球数字鸿沟,推动互联网普及。该项目还为军事、航空等行业提供通信支持,带来广泛经济效益。
2D轨道图
3D轨道图
轨道高度分析图
轨道倾角分析图
轨道综合分析图
查看轨道综合分析图
与全量物体交会距离演化趋势
与全量物体交会风险概率演化趋势